JBU1329 MGGT-KJFK

Flight info

Callsign JBU1329
Flight time N/A
Altitude 35000
Route TIKISN TIKIS UG765 MAXIM DCT EYW DCT PBI DCT LENDS DCT PELCN DCT ROWSY AR18 FLRDA DCT SAGGY AR19 CHIEZ Q133 KALDA Q167 ZJAAY DCT RADDS DCT SIE CAMRN4
Aircraft A21N/M-SDE2E3FGHIJ1RWXY/C

Departure

Time 2026-05-03 20:21
Airport La Aurora International Airport (MGGT)

Arrival

Time N/A
Airport John F. Kennedy International Airport (KJFK)
Time Latitude Longitude Altitude Speed Heading
2026-05-03 20:15 14.58686 -90.52731 4896 ft 7 kts 100°
2026-05-03 20:15 14.58721 -90.52693 4896 ft 11 kts 21°
2026-05-03 20:15 14.58841 -90.52653 4898 ft 20 kts 18°
2026-05-03 20:15 14.58965 -90.52612 4904 ft 17 kts 17°
2026-05-03 20:16 14.59065 -90.52580 4911 ft 13 kts 18°
2026-05-03 20:16 14.59141 -90.52555 4915 ft 10 kts 18°
2026-05-03 20:16 14.59229 -90.52527 4916 ft 17 kts 17°
2026-05-03 20:16 14.59334 -90.52495 4919 ft 14 kts 17°
2026-05-03 20:17 14.59412 -90.52469 4922 ft 10 kts 18°
2026-05-03 20:17 14.59466 -90.52451 4924 ft 6 kts 17°
2026-05-03 20:17 14.59500 -90.52441 4927 ft 4 kts 17°
2026-05-03 20:17 14.59535 -90.52430 4925 ft 5 kts 17°
2026-05-03 20:18 14.59560 -90.52421 4926 ft 3 kts 18°
2026-05-03 20:18 14.59587 -90.52407 4927 ft 3 kts 45°
2026-05-03 20:18 14.59595 -90.52387 4928 ft 10 kts 70°
2026-05-03 20:18 14.59594 -90.52354 4928 ft 3 kts 118°
2026-05-03 20:19 14.59573 -90.52345 4926 ft 2 kts 185°
2026-05-03 20:19 14.59530 -90.52361 4926 ft 9 kts 197°
2026-05-03 20:19 14.59527 -90.52362 4926 ft 0 kts 197°
2026-05-03 20:20 14.59506 -90.52369 4925 ft 20 kts 197°
2026-05-03 20:20 14.59124 -90.52490 4915 ft 94 kts 197°
2026-05-03 20:21 14.58254 -90.52767 4884 ft 167 kts 197°
2026-05-03 20:21 14.57014 -90.53191 5107 ft 200 kts 198°
2026-05-03 20:21 14.55633 -90.53681 5705 ft 209 kts 195°
2026-05-03 20:21 14.54285 -90.53896 6780 ft 192 kts 178°
2026-05-03 20:22 14.53009 -90.53626 7505 ft 188 kts 151°
2026-05-03 20:22 14.52019 -90.52739 8006 ft 194 kts 117°
2026-05-03 20:22 14.51707 -90.51377 8480 ft 202 kts 83°
2026-05-03 20:22 14.52247 -90.50076 8949 ft 202 kts 47°
2026-05-03 20:23 14.53343 -90.49115 9410 ft 213 kts 35°
2026-05-03 20:23 14.54664 -90.48328 9919 ft 224 kts 28°
2026-05-03 20:23 14.56085 -90.47629 10356 ft 225 kts 25°
2026-05-03 20:23 14.57575 -90.46960 10842 ft 243 kts 25°
2026-05-03 20:24 14.59187 -90.46227 11316 ft 264 kts 26°
2026-05-03 20:24 14.60921 -90.45404 11790 ft 285 kts 26°
2026-05-03 20:24 14.62778 -90.44485 12277 ft 307 kts 27°
2026-05-03 20:24 14.64759 -90.43474 12752 ft 327 kts 27°
2026-05-03 20:25 14.66857 -90.42385 13252 ft 347 kts 28°
2026-05-03 20:25 14.69064 -90.41232 13740 ft 364 kts 28°
2026-05-03 20:25 14.71373 -90.40023 14211 ft 378 kts 28°
2026-05-03 20:25 14.73702 -90.38806 14650 ft 381 kts 28°
2026-05-03 20:26 14.76107 -90.37551 15115 ft 383 kts 27°
2026-05-03 20:26 14.78430 -90.36344 15551 ft 373 kts 28°
2026-05-03 20:26 14.80728 -90.35148 16027 ft 367 kts 27°
2026-05-03 20:26 14.83013 -90.33959 16519 ft 369 kts 28°
2026-05-03 20:27 14.85311 -90.32756 17004 ft 371 kts 28°
2026-05-03 20:27 14.87619 -90.31552 17490 ft 374 kts 28°
2026-05-03 20:27 14.89947 -90.30339 17971 ft 375 kts 29°
2026-05-03 20:27 14.92282 -90.29121 18484 ft 376 kts 28°
2026-05-03 20:28 14.94618 -90.27901 18914 ft 377 kts 27°
2026-05-03 20:28 14.96965 -90.26676 19369 ft 377 kts 28°
2026-05-03 20:28 14.99309 -90.25452 19820 ft 378 kts 27°
2026-05-03 20:28 15.01673 -90.24217 20286 ft 383 kts 28°
2026-05-03 20:29 15.04062 -90.22968 20750 ft 388 kts 27°
2026-05-03 20:29 15.06487 -90.21700 21227 ft 391 kts 27°
2026-05-03 20:29 15.08924 -90.20426 21710 ft 394 kts 28°
2026-05-03 20:29 15.11384 -90.19140 22214 ft 397 kts 27°
2026-05-03 20:30 15.13860 -90.17846 22707 ft 399 kts 27°
2026-05-03 20:30 15.16337 -90.16550 23224 ft 400 kts 27°
2026-05-03 20:30 15.18823 -90.15250 23719 ft 401 kts 27°
2026-05-03 20:30 15.21317 -90.13946 24150 ft 402 kts 27°
2026-05-03 20:31 15.23814 -90.12639 24604 ft 402 kts 27°
2026-05-03 20:31 15.26307 -90.11333 25037 ft 402 kts 27°
2026-05-03 20:31 15.28803 -90.10025 25492 ft 402 kts 26°
2026-05-03 20:31 15.31291 -90.08722 25945 ft 400 kts 27°
2026-05-03 20:32 15.33744 -90.07437 26405 ft 398 kts 26°
2026-05-03 20:32 15.36204 -90.06147 26882 ft 395 kts 26°
2026-05-03 20:32 15.38649 -90.04864 27362 ft 393 kts 26°
2026-05-03 20:32 15.41077 -90.03590 27850 ft 389 kts 26°
2026-05-03 20:33 15.43484 -90.02327 28352 ft 385 kts 26°
2026-05-03 20:33 15.45864 -90.01078 28861 ft 381 kts 26°
2026-05-03 20:33 15.48214 -89.99843 29364 ft 376 kts 25°
2026-05-03 20:33 15.50531 -89.98626 29813 ft 371 kts 25°
2026-05-03 20:34 15.52839 -89.97414 30054 ft 374 kts 25°
2026-05-03 20:34 15.57586 -89.94924 30074 ft 391 kts 25°
2026-05-03 20:35 15.62552 -89.92316 30066 ft 408 kts 25°
2026-05-03 20:35 15.67675 -89.89620 30417 ft 412 kts 25°
2026-05-03 20:35 15.70214 -89.88281 30871 ft 406 kts 25°
2026-05-03 20:36 15.72714 -89.86963 31334 ft 400 kts 25°
2026-05-03 20:36 15.75182 -89.85662 31783 ft 394 kts 25°
2026-05-03 20:36 15.77627 -89.84375 32019 ft 396 kts 25°
2026-05-03 20:37 15.82584 -89.81769 32045 ft 409 kts 25°
2026-05-03 20:37 15.87748 -89.79051 32045 ft 423 kts 25°
2026-05-03 20:38 15.93077 -89.76240 32016 ft 436 kts 25°
2026-05-03 20:38 15.98558 -89.73345 32154 ft 445 kts 25°
2026-05-03 20:38 16.01299 -89.71897 32583 ft 439 kts 25°
2026-05-03 20:39 16.04000 -89.70468 33074 ft 432 kts 25°
2026-05-03 20:39 16.06659 -89.69062 33553 ft 425 kts 25°
2026-05-03 20:39 16.09268 -89.67681 34053 ft 417 kts 25°
2026-05-03 20:39 16.11823 -89.66328 34496 ft 408 kts 25°
2026-05-03 20:40 16.14332 -89.65001 34870 ft 402 kts 25°
2026-05-03 20:40 16.16820 -89.63685 34992 ft 402 kts 25°
2026-05-03 20:40 16.19325 -89.62362 35006 ft 406 kts 25°
2026-05-03 20:41 16.24411 -89.59674 35004 ft 414 kts 25°
2026-05-03 20:41 16.29595 -89.56930 35003 ft 422 kts 25°
2026-05-03 20:42 16.34880 -89.54129 34997 ft 430 kts 25°
2026-05-03 20:42 16.40273 -89.51269 34995 ft 439 kts 25°
2026-05-03 20:43 16.45769 -89.48354 34993 ft 448 kts 25°
2026-05-03 20:43 16.51339 -89.45396 34992 ft 457 kts 25°
2026-05-03 20:44 16.57055 -89.42359 34991 ft 465 kts 25°
2026-05-03 20:44 16.62873 -89.39266 34990 ft 473 kts 25°
2026-05-03 20:45 16.68788 -89.36119 34990 ft 480 kts 25°
2026-05-03 20:45 16.74741 -89.32922 34991 ft 482 kts 26°
2026-05-03 20:46 16.80686 -89.29640 34987 ft 484 kts 26°
2026-05-03 20:46 16.86633 -89.26335 34988 ft 484 kts 26°
2026-05-03 20:47 16.92584 -89.23033 34983 ft 484 kts 26°
2026-05-03 20:47 16.98534 -89.19735 34982 ft 484 kts 26°
2026-05-03 20:48 17.04480 -89.16441 34982 ft 484 kts 26°
2026-05-03 20:48 17.10429 -89.13120 34977 ft 486 kts 26°
2026-05-03 20:49 17.16346 -89.09789 34975 ft 486 kts 26°
2026-05-03 20:49 17.22297 -89.06432 34963 ft 486 kts 26°
2026-05-03 20:50 17.28253 -89.03073 34960 ft 486 kts 26°
2026-05-03 20:50 17.34208 -88.99714 34955 ft 486 kts 26°
2026-05-03 20:51 17.40168 -88.96351 34959 ft 486 kts 26°
2026-05-03 20:51 17.46130 -88.92984 34949 ft 487 kts 26°
2026-05-03 20:52 17.51087 -88.90183 34941 ft 487 kts 26°
2026-05-03 20:52 17.57051 -88.86810 34941 ft 487 kts 26°
2026-05-03 20:53 17.63014 -88.83435 34939 ft 487 kts 25°
2026-05-03 20:53 17.68980 -88.80056 34942 ft 486 kts 25°
2026-05-03 20:54 17.74936 -88.76679 34944 ft 486 kts 25°
2026-05-03 20:54 17.83885 -88.71602 34939 ft 488 kts 25°
2026-05-03 20:55 17.89860 -88.68209 34936 ft 488 kts 25°
2026-05-03 20:55 17.95791 -88.64837 34936 ft 488 kts 25°
2026-05-03 20:56 18.01766 -88.61438 34936 ft 488 kts 25°
2026-05-03 20:56 18.07746 -88.58034 34936 ft 488 kts 25°
2026-05-03 20:57 18.13719 -88.54632 34933 ft 488 kts 25°
2026-05-03 20:57 18.19696 -88.51224 34933 ft 488 kts 25°
2026-05-03 20:58 18.25671 -88.47815 34933 ft 488 kts 25°
2026-05-03 20:58 18.31643 -88.44403 34957 ft 488 kts 25°
2026-05-03 20:59 18.37605 -88.40996 34969 ft 488 kts 25°
2026-05-03 20:59 18.43565 -88.37588 34982 ft 488 kts 25°
2026-05-03 21:00 18.48526 -88.34749 34979 ft 488 kts 25°
2026-05-03 21:00 18.55501 -88.30740 34981 ft 489 kts 25°
2026-05-03 21:01 18.61466 -88.27304 34950 ft 488 kts 25°
2026-05-03 21:01 18.67431 -88.23864 34942 ft 488 kts 25°
2026-05-03 21:02 18.73394 -88.20421 34935 ft 488 kts 25°
2026-05-03 21:02 18.79310 -88.17002 34930 ft 487 kts 25°
2026-05-03 21:03 18.85249 -88.13567 34925 ft 486 kts 25°
2026-05-03 21:03 18.91177 -88.10135 34925 ft 485 kts 25°
2026-05-03 21:04 18.97101 -88.06704 34925 ft 486 kts 25°
2026-05-03 21:04 19.03030 -88.03267 34925 ft 486 kts 25°
2026-05-03 21:05 19.08956 -87.99827 34933 ft 486 kts 25°
2026-05-03 21:05 19.14884 -87.96385 34932 ft 486 kts 25°
2026-05-03 21:06 19.20815 -87.92937 34933 ft 486 kts 25°
2026-05-03 21:06 19.26740 -87.89490 34933 ft 486 kts 25°
2026-05-03 21:07 19.32671 -87.86038 34936 ft 486 kts 25°
2026-05-03 21:07 19.38597 -87.82584 34939 ft 486 kts 25°
2026-05-03 21:08 19.44522 -87.79129 34940 ft 486 kts 25°
2026-05-03 21:08 19.50456 -87.75666 34938 ft 487 kts 25°
2026-05-03 21:09 19.56365 -87.72215 34939 ft 488 kts 25°
2026-05-03 21:09 19.62307 -87.68738 34945 ft 487 kts 25°
2026-05-03 21:10 19.68245 -87.65264 34947 ft 487 kts 25°
2026-05-03 21:10 19.74180 -87.61788 34946 ft 487 kts 25°
2026-05-03 21:11 19.80118 -87.58308 34948 ft 487 kts 25°
2026-05-03 21:11 19.85817 -87.54355 34949 ft 494 kts 38°
2026-05-03 21:12 19.90839 -87.49355 34949 ft 496 kts 42°
2026-05-03 21:12 19.95660 -87.44080 34952 ft 497 kts 43°
2026-05-03 21:13 20.00446 -87.38772 34952 ft 497 kts 43°
2026-05-03 21:13 20.05222 -87.33516 34955 ft 497 kts 43°
2026-05-03 21:14 20.10043 -87.28239 34958 ft 497 kts 43°
2026-05-03 21:14 20.14873 -87.22958 34962 ft 499 kts 42°
2026-05-03 21:15 20.19723 -87.17650 34965 ft 500 kts 43°
2026-05-03 21:15 20.24570 -87.12337 34959 ft 500 kts 43°
2026-05-03 21:16 20.29416 -87.07018 34964 ft 500 kts 43°